Miscellaneous Local Product
Issued by NWS Hastings, NE

Home | Current Version | Previous Version | Text Only | Print | Product List | Glossary Off
Versions: 1 2 3 4 5 6 7 8 9 10 11 12 13 14 15 16 17 18 19 20 21 22 23 24 25 26 27 28 29 30 31 32 33 34 35 36 37 38 39 40 41 42 43 44 45 46 47 48 49 50

000
AXUS43 KGID 310802
MISGRI

GID CWA HOURLY WEATHER ROUNDUP
NATIONAL WEATHER SERVICE HASTINGS NE
200 AM CST SAT JAN 31 2015

NOTE: "FAIR" INDICATES FEW OR NO CLOUDS BELOW 12,000 FEET WITH NO
SIGNIFICANT WEATHER AND/OR OBSTRUCTIONS TO VISIBILITY.

...SOUTH CENTRAL NEBRASKA...

CITY           SKY/WX    TMP DP  RH WIND       PRES   REMARKS
GRAND ISLAND   CLOUDY    36  32  85 S13       30.16F WCI  27
HASTINGS       LGT SNOW  33  31  92 S7        30.16F FOG     WCI  27
KEARNEY        CLOUDY    34  30  86 S14       30.14F WCI  24
ORD            CLOUDY    35  30  82 S8        30.11F WCI  29
YORK           CLOUDY    36  34  93 SW16      30.19F WCI  26
AURORA         CLOUDY    36  33  91 SW13      30.18F WCI  27
LEXINGTON      CLOUDY    35  33  91 S10       30.12F WCI  28
HOLDREGE       MIX PCPN  33  32  96 S8        30.14F WCI  26
HEBRON         LGT RAIN  35  32  90 S3        30.24F

...NEBRASKA PANHANDLE...

CITY           SKY/WX    TMP DP  RH WIND       PRES   REMARKS
CHADRON        CLOUDY    28  24  85 W3        30.07F
ALLIANCE       CLOUDY    28  26  92 N6        30.02F WCI  22
SCOTTSBLUFF    CLOUDY    35  26  69 N6        30.03S WCI  30
SIDNEY         CLOUDY    29  26  89 N6        30.00F WCI  23

...WESTERN AND NORTH CENTRAL NEBRASKA...

CITY           SKY/WX    TMP DP  RH WIND       PRES   REMARKS
VALENTINE      CLOUDY    29  25  85 E5        30.05F WCI  24
AINSWORTH      CLOUDY    34  29  82 SW6       30.07F WCI  29
ONEILL         CLOUDY    34  29  83 SW6       30.10F WCI  29
BROKEN BOW     CLOUDY    37  33  85 S14G23    30.09F WCI  28
IMPERIAL       CLOUDY    34  32  92 SE9       30.03F WCI  27
NORTH PLATTE   CLOUDY    36  32  85 S10       30.08F WCI  28
MCCOOK         CLOUDY    35  32  88 S7        30.09F WCI  29

...EASTERN NEBRASKA...

CITY           SKY/WX    TMP DP  RH WIND       PRES   REMARKS
NORFOLK        CLOUDY    36  30  79 SW5       30.14F WCI  32
SO SIOUX CITY  PTCLDY    27  24  89 MISG      30.16F
TEKAMAH        CLOUDY    34  27  75 S9        30.19F WCI  27
COLUMBUS       CLOUDY    39  30  70 SW10      30.19S WCI  32
ALBION         CLOUDY    38  31  77 SW10      30.14F WCI  31
OMAHA EPPLEY   CLOUDY    33  26  75 SE9       30.22F WCI  25
OFFUTT AFB     CLOUDY    31  25  79 E3        30.22F
MILLARD        CLOUDY    36  28  70 CALM      30.22S
LINCOLN        CLOUDY    39  33  79 SW15      30.23F WCI  31
NEBRASKA CITY  CLOUDY    33  24  71 SW9       30.23F WCI  25
BEATRICE       DRIZZLE   36  34  94 SW10      30.25F WCI  28
FALLS CITY     CLOUDY    36  26  67 SW8       30.27F WCI  30

...NORTHERN KANSAS...

CITY           SKY/WX    TMP DP  RH WIND       PRES   REMARKS
GOODLAND       CLOUDY    34  32  92 S14       30.02F WCI  25
HILL CITY      LGT SNOW  33  32  96 SE7       30.15F FOG     WCI  27
NORTON         LGT SNOW  34  30  86 SE7       30.12F WCI  28
PHILLIPSBURG   LGT SNOW  36  36 100 SE7       30.17F WCI  30
SMITH CENTER   MIX PCPN  30  30 100 SE9       30.19F WCI  22
BELOIT         CLOUDY    36  34  93 SE8       30.22F WCI  29
HAYS           CLOUDY    32  25  74 SE9       30.19F WCI  24
RUSSELL        LGT SNOW  33  32  96 S9        30.20F FOG     WCI  25
CONCORDIA      LGT RAIN  34  34 100 S6        30.24F FOG     WCI  29
SALINA         LGT RAIN  36  33  89 E3        30.25F
TOPEKA         CLOUDY    36  31  82 S5        30.31F WCI  32



USA.gov is the U.S. government's official web portal to all federal, state and local government web resources and services.